Location: Cheb
(50.0670°N, 12.3670°E)
Time: 08:13:11
(UTC+02:00)

ISS - Pass Details

Date: 29 March 2019
Orbit: 408 x 410 km, 51.6° (Epoch: 22 April)

Event Time Altitude Azimuth Distance (km) Brightness Sun altitude
Rises 21:41:07 0° 287° (WNW) 2,338 1.0 -27.0°
Reaches altitude 10° 21:43:13 10° 285° (WNW) 1,475 -0.3 -27.2°
Enters shadow 21:44:07 17° 283° (WNW) 1,113 -1.0 -27.3°
